User: anonymous
Location: Bonn
(50.7330°N, 7.1000°E)
Time: 17:57:17
(UTC+02:00)
Language:

Cosmos 1933 Rocket - Orbit

View from above orbital plane
View from above orbital plane
View from above satellite
View from above satellite

Ground track
Ground track

The orbit data is extracted from the following two-line orbital elements,

1 18959U 88020B   14205.46415182  .00000131  00000-0  13261-4 0  2998
2 18959 082.5385 179.8389 0017501 033.3821 093.0199 14.82823784423652
Epoch (UTC): 24 July 2014 11:08:22
Eccentricity: 0.0017501
inclination: 82.5385°
perigee height: 608 km
apogee height: 632 km
right ascension of ascending node: 179.8389°
argument of perigee: 33.3821°
revolutions per day: 14.82823784
mean anomaly at epoch: 93.0199°
orbit number at epoch: 42365

The dashed part of the orbit path shows where the satellite is in the earth's shadow,  

DLR